User: anonymous   Login
Location: *
(46.1866°S, 178.5290°W)
Time: 14:24:40
(UTC+00:00)
Language:

H-2A R/B - Orbit

View from above orbital plane
View from above orbital plane
View from above satellite
View from above satellite

Ground track
Ground track

The orbit data is extracted from the following two-line orbital elements,

1 28932U 06002B   21208.07743223  .00000820  00000-0  79995-4 0  9996
2 28932  98.3261 227.3214 0089496  78.0642 348.0285 14.92613275841608
Epoch (UTC): 27 July 2021 01:51:30
Eccentricity: 0.0089496
inclination: 98.3261°
perigee height: 527 km
apogee height: 652 km
right ascension of ascending node: 227.3214°
argument of perigee: 78.0642°
revolutions per day: 14.92613275
mean anomaly at epoch: 348.0285°
orbit number at epoch: 84160

The dashed part of the orbit path shows where the satellite is in the earth's shadow,  

DLR